Flag for U.S.A. Weather past 2 weeks in Barnstable, Massachusetts, U.S.A.

Now
57 °F

Sunny.


Feels Like: 57 °F
Forecast: 56 / 78 °F
Wind: No wind

Location: Barnstable Municipal-Boardman Airport

Current Time: Aug 20, 2014 at 7:35:37 AM

Latest Report: Aug 20, 2014 at 6:56 AM


Visibility: 10 mi

Pressure: 29.98 "Hg

Humidity: 90%

Dew point: 54 °F

Location of BarnstableLocation

Historic Weather in Barnstable — Graph

°F

Barnstable temperature yesterday

Maximum temperature yesterday: 74 °F (at 1:56 PM)
Minimum temperature yesterday: 53 °F (at 4:56 AM)
Average temperature yesterday: 64 °F

Past Weeks' High & Low Weather Summary

 TemperatureHumidityPressure
High80 °F (Aug 5, 1:56 PM)93% (Aug 5, 5:56 AM)30.16 "Hg (Aug 5, 5:56 AM)
Low53 °F (Aug 19, 4:56 AM)42% (Aug 14, 1:56 PM)29.63 "Hg (Aug 13, 10:56 PM)
Average69 °F75%29.93 "Hg
* Reported Aug 5 5:56 AM — Aug 20 5:56 AM, Barnstable, Weather by CustomWeather, © 2014

Note: Actual official high and low records may vary slightly from our data, if they occured in-between our weather recording intervals... More about our weather records

Advertising

Barnstable weather history for previous 24 hours

 ConditionsComfort  
Time TempWeatherWind HumidityBarometerVisibility
5:56 AM
Aug 20
53 °FClear.No wind93%29.98 "Hg10 mi
4:56 AM53 °FClear.3 mph89%29.97 "Hg10 mi
3:56 AM54 °FClear.No wind93%29.95 "Hg10 mi
2:56 AM56 °FClear.No wind90%29.94 "Hg10 mi
1:56 AM56 °FClear.No wind90%29.95 "Hg10 mi
12:56 AM56 °FClear.No wind93%29.96 "Hg10 mi
11:56 PM
Aug 19
57 °FClear.No wind90%29.96 "Hg10 mi
10:56 PM58 °FClear.No wind90%29.95 "Hg10 mi
9:56 PM60 °FClear.No wind90%29.95 "Hg10 mi
8:56 PM64 °FClear.No wind81%29.95 "Hg10 mi
7:56 PM65 °FSunny.No wind81%29.93 "Hg10 mi
6:56 PM68 °FSunny.3 mph70%29.93 "Hg10 mi
5:56 PM70 °FSunny.3 mph66%29.92 "Hg10 mi
4:56 PM71 °FSunny.5 mph59%29.91 "Hg10 mi
3:56 PM72 °FSunny.5 mph57%29.90 "Hg10 mi
2:56 PM73 °FPassing clouds.6 mph55%29.91 "Hg10 mi
1:56 PM74 °FScattered clouds.6 mph53%29.91 "Hg10 mi
12:56 PM72 °FSunny.6 mph55%29.91 "Hg10 mi
11:56 AM73 °FSunny.7 mph55%29.92 "Hg10 mi
10:56 AM71 °FSunny.7 mph57%29.93 "Hg10 mi
9:56 AM70 °FSunny.5 mph64%29.91 "Hg10 mi
8:56 AM67 °FSunny.5 mph68%29.91 "Hg10 mi
7:56 AM64 °FSunny.6 mph78%29.90 "Hg10 mi
Weather by CustomWeather, © 2014

See weather overviewHow to use our weather pages